Newport, AR

6:23 PM CDT on May 21, 2018 (GMT -0500)
Newport

Weather History for KM19 - March, 2013

Change the Weather History Date:

Sunday, March 17, 2013

  Actual Average (KBVX) Record (KBVX)
Temperature  
Mean Temperature 42 °F -  
Max Temperature 46 °F 62 °F 82 °F (1982)
Min Temperature 39 °F 37 °F 22 °F (1962)
Degree Days  
Heating Degree Days 22    
Moisture  
Dew Point 41 °F    
Average Humidity 93    
Maximum Humidity 100    
Minimum Humidity 80    
Precipitation  
Precipitation 0.00 in - - ()
Sea Level Pressure  
Sea Level Pressure 29.88 in    
Wind  
Wind Speed 14 mph (NNE)    
Max Wind Speed 21 mph    
Max Gust Speed -    
Visibility 6 miles    
Events Rain    
Averages and records for this station are not official NWS values.
T = Trace of Precipitation, MM = Missing Value Source: NWS Daily Summary

Daily Weather History Graph

Daily Weather History Graph

Search for Another Location

Airport or City:

Astronomy

Mar. 17, 2013 Rise Set
Actual Time 7:12 AM CDT 7:14 PM CDT
Civil Twilight 6:46 AM CDT 7:39 PM CDT
Nautical Twilight 6:17 AM CDT 8:09 PM CDT
Astronomical Twilight 5:47 AM CDT 8:39 PM CDT
Moon 10:36 AM CDT (3/17) 12:11 AM CDT (3/17)
Length of Visible Light 12h 52m
Length of Day
12h 01m
Waxing Crescent, 31% of the Moon is Illuminated
Mar 17
Waxing Crescent
Mar 19
First Quarter
Mar 27
Full
Apr 2
Last Quarter
Apr 10
New

Hourly Weather History & Observations

Time (CDT) Temp. Windchill Dew Point Humidity Pressure Visibility Wind Dir Wind Speed Gust Speed Precip Events Conditions
12:56 AM 46.9 °F - 41.9 °F 83% 29.92 in 8.0 mi NNE 15.0 mph - N/A   Clear
1:56 AM 46.9 °F - 41.9 °F 83% 29.91 in 7.0 mi NE 11.5 mph - N/A   Mostly Cloudy
2:56 AM 45.9 °F 42.3 °F 41.9 °F 86% 29.90 in 6.0 mi NE 6.9 mph - N/A   Partly Cloudy
3:56 AM 45.0 °F 39.7 °F 41.9 °F 89% 29.88 in 6.0 mi NE 10.4 mph - N/A   Clear
4:56 AM 43.9 °F 35.9 °F 39.9 °F 86% 29.91 in 7.0 mi NNE 18.4 mph - N/A   Mostly Cloudy
5:56 AM 43.9 °F 35.7 °F 38.8 °F 82% 29.93 in 8.0 mi NE 19.6 mph - N/A   Overcast
6:22 AM 44.6 °F 37.2 °F 39.2 °F 81% 29.94 in 8.0 mi NNE 17.3 mph - N/A   Overcast
6:56 AM 43.9 °F 35.9 °F 38.8 °F 82% 29.94 in 9.0 mi NE 18.4 mph - N/A   Overcast
7:56 AM 43.9 °F 37.5 °F 37.9 °F 80% 29.96 in 8.0 mi NNE 12.7 mph - N/A   Overcast
8:56 AM 43.0 °F 36.0 °F 37.9 °F 82% 29.96 in 8.0 mi NE 13.8 mph - N/A   Overcast
9:32 AM 42.8 °F 35.8 °F 37.4 °F 81% 29.97 in 9.0 mi NNE 13.8 mph - N/A   Overcast
9:56 AM 41.9 °F 34.3 °F 37.9 °F 86% 29.99 in 7.0 mi North 15.0 mph - N/A   Overcast
10:13 AM 41.0 °F 32.5 °F 39.2 °F 93% 29.98 in 3.0 mi NNE 17.3 mph - 0.00 in Rain Light Rain
10:46 AM 41.0 °F 32.5 °F 39.2 °F 93% 29.99 in 2.5 mi NNE 17.3 mph - 0.00 in Rain Light Rain
10:56 AM 39.9 °F 30.5 °F 39.9 °F 100% 29.99 in 2.0 mi NNE 19.6 mph - 0.00 in Rain Light Rain
11:03 AM 39.2 °F 29.3 °F 39.2 °F 100% 29.98 in 1.8 mi NNE 20.7 mph - 0.00 in Rain Light Rain
11:25 AM 41.0 °F 31.6 °F 39.2 °F 93% 29.97 in 2.5 mi NE 20.7 mph - 0.00 in Rain Light Rain
11:34 AM 41.0 °F 31.9 °F 39.2 °F 93% 29.97 in 4.0 mi NE 19.6 mph - 0.00 in Rain Light Rain
11:56 AM 41.0 °F 32.8 °F 39.9 °F 96% 29.97 in 4.0 mi NE 16.1 mph - 0.00 in   Overcast
12:56 PM 41.9 °F 35.4 °F 41.0 °F 97% 29.93 in 5.0 mi NE 11.5 mph - 0.00 in Rain Light Rain
1:29 PM 42.8 °F 34.8 °F 41.0 °F 93% 29.90 in 10.0 mi ENE 17.3 mph - 0.00 in   Overcast
1:56 PM 43.0 °F - 41.0 °F 93% 29.89 in 10.0 mi North - - 0.00 in   Overcast
2:56 PM 43.0 °F 37.7 °F 41.0 °F 93% 29.85 in 6.0 mi ENE 9.2 mph - 0.00 in Rain Light Rain
3:56 PM 43.9 °F 38.3 °F 43.0 °F 97% 29.83 in 6.0 mi NE 10.4 mph - 0.00 in Rain Light Rain
4:33 PM 42.8 °F 37.0 °F 42.8 °F 100% 29.81 in 4.0 mi NNE 10.4 mph - 0.00 in Rain Light Rain
4:56 PM 43.9 °F 38.8 °F 43.9 °F 100% 29.81 in 8.0 mi NNE 9.2 mph - 0.00 in   Overcast
5:17 PM 44.6 °F 39.7 °F 44.6 °F 100% 29.80 in 8.0 mi North 9.2 mph - N/A   Overcast
5:56 PM 43.9 °F 38.8 °F 43.9 °F 100% 29.80 in 10.0 mi NNE 9.2 mph - N/A   Overcast
6:56 PM 43.9 °F 39.9 °F 43.9 °F 100% 29.77 in 8.0 mi NE 6.9 mph - N/A   Overcast
7:03 PM 44.6 °F 40.7 °F 44.6 °F 100% 29.76 in 8.0 mi NNE 6.9 mph - N/A   Overcast
7:56 PM 43.9 °F 39.9 °F 43.9 °F 100% 29.76 in 8.0 mi North 6.9 mph - N/A   Overcast
8:56 PM 43.9 °F 40.5 °F 43.9 °F 100% 29.74 in 7.0 mi East 5.8 mph - N/A   Overcast
9:56 PM 43.9 °F 39.3 °F 43.9 °F 100% 29.75 in 6.0 mi North 8.1 mph - N/A   Overcast
10:56 PM 43.9 °F 37.9 °F 43.9 °F 100% 29.74 in 7.0 mi NNW 11.5 mph - N/A   Overcast
11:56 PM 43.0 °F 36.0 °F 43.0 °F 100% 29.75 in 5.0 mi NNW 13.8 mph - 0.00 in Rain Light Rain